Flag for Cambodia Weather past 2 weeks in Phnom Penh, Cambodia

Now
81 °F

Passing clouds.


Feels Like: 88 °F
Forecast: 77 / 88 °F
Wind: 1 mph from North

Location: Phnom-Penh / Pochentong

Current Time: Oct 23, 2014 at 9:09:01 PM

Latest Report: Oct 23, 2014 at 8:30 PM


Visibility: N/A

Pressure: 29.86 "Hg

Humidity: 94%

Dew point: 79 °F

Location of Phnom PenhLocation

Historic Weather in Phnom Penh — Graph

°F

Phnom Penh temperature yesterday

Maximum temperature yesterday: 90 °F (at 1:30 PM)
Minimum temperature yesterday: 75 °F (at 9:30 PM)
Average temperature yesterday: 83 °F

Past Weeks' High & Low Weather Summary

 TemperatureHumidityPressure
High140 °F (Oct 19, 2:00 PM)100% (Oct 13, 6:30 AM)29.95 "Hg (Oct 13, 6:30 AM)
Low73 °F (Oct 13, 6:30 AM)52% (Oct 14, 12:30 PM)29.65 "Hg (Oct 10, 3:30 PM)
Average84 °F75%29.81 "Hg
* Reported Oct 8 8:00 PM — Oct 23 8:00 PM, Phnom Penh, Weather by CustomWeather, © 2014

Note: Actual official high and low records may vary slightly from our data, if they occured in-between our weather recording intervals... More about our weather records

Advertising

Phnom Penh weather history for previous 24 hours

 ConditionsComfort  
Time TempWeatherWind HumidityBarometerVisibility
8:00 PM
Oct 23
81 °FPassing clouds.1 mph94%29.83 "HgN/A
7:30 PM81 °FPassing clouds.2 mph89%29.83 "HgN/A
6:30 PM81 °FPassing clouds.1 mph89%29.80 "HgN/A
6:00 PM81 °FPassing clouds.2 mph89%29.80 "HgN/A
5:30 PM82 °FScattered clouds.5 mph79%29.77 "HgN/A
5:00 PM82 °FScattered clouds.6 mph79%29.77 "HgN/A
4:30 PM82 °FScattered clouds.6 mph79%29.77 "HgN/A
4:00 PM82 °FScattered clouds.6 mph79%29.74 "HgN/A
3:00 PM82 °FScattered clouds.6 mph79%29.77 "HgN/A
2:30 PM82 °FScattered clouds.9 mph79%29.77 "HgN/A
2:00 PM82 °FScattered clouds.9 mph84%29.77 "HgN/A
1:30 PM86 °FScattered clouds.1 mph75%29.80 "HgN/A
1:00 PM86 °FScattered clouds.5 mph75%29.80 "HgN/A
12:30 PM86 °FScattered clouds.7 mph79%29.83 "HgN/A
12:00 PM86 °FScattered clouds.7 mph75%29.83 "HgN/A
11:30 AM84 °FScattered clouds.6 mph79%29.86 "HgN/A
11:00 AM84 °FScattered clouds.6 mph79%29.86 "HgN/A
10:30 AM84 °FPartly sunny.3 mph79%29.89 "HgN/A
9:30 AM82 °FPartly sunny.2 mph84%29.92 "HgN/A
9:00 AM81 °FPartly sunny.5 mph89%29.89 "HgN/A
8:30 AM81 °FPartly sunny.3 mph89%29.89 "HgN/A
8:00 AM81 °FBroken clouds.3 mph89%29.89 "Hg6 mi
7:30 AM79 °FBroken clouds.2 mph94%29.83 "Hg6 mi
7:00 AM77 °FBroken clouds.2 mph94%29.83 "Hg6 mi
6:30 AM77 °FBroken clouds.2 mph94%29.83 "Hg6 mi
6:00 AM77 °FBroken clouds.2 mph94%29.83 "Hg6 mi
1:00 AM79 °FPartly cloudy.1 mph94%29.86 "Hg6 mi
12:30 AM79 °FPartly cloudy.2 mph94%29.86 "Hg6 mi
12:00 AM77 °FPartly cloudy.3 mph100%29.86 "Hg6 mi
11:30 PM
Oct 22
77 °FWarm.2 mph100%29.86 "HgN/A
11:00 PM77 °FWarm.3 mph100%29.86 "HgN/A
10:30 PM77 °FWarm.8 mph94%29.86 "HgN/A
10:00 PM75 °FMild.14 mph100%29.89 "HgN/A
9:30 PM75 °FThunderstorms. Partly cloudy.17 mph100%29.89 "Hg3 mi
9:00 PM79 °FWarm.14 mph89%29.86 "HgN/A
Weather by CustomWeather, © 2014

See weather overviewHow to use our weather pages